FENGYUN 1C DEB, 30247

Orbit data source: Space-Track

FENGYUN 1C DEB, 30247 is space debris in SSO originally from a launch on Mon, 10 May 1999 UTC launched from the Taiyaun Space Center, China (TSC). Fengyun 1C debris stems from the Chinese weather satellite Fengyun-1C, which was intentionally destroyed by a Chinese anti-satellite missile in 2007. This event dramatically increased the amount of space debris, with thousands of trackable fragments posing hazards to satellites and human spaceflight. The Fengyun 1C debris cloud has become a focal point in discussions about space sustainability and the need for international regulations to prevent the creation of new debris.

Loading next visibility...
Identifier
30247, 1999-025XG
Orbit
SSO
Country
Flag of CNCN / PRC
Related business
Manufacturer
Unknown
Mission
Spacecraft
Bus & Motor
Unknown
Mass
Unknown
Launch date (UTC)
1999-05-10 (27 years ago)
Launch vehicle
Unknown
Launch site
Taiyaun Space Center, China (TSC)
Object type
Payload
Rocket body
Debris
Shape & HBR
Unknown shape, 0.1 m
Radar Cross Section
Small (<0.1 m²)

Expand to show TLE details & history
Last TLE update: 1 day ago

TLE from 1 day ago
0 FENGYUN 1C DEB
1 30247U 99025XG  25349.21617263  .00012041  00000-0  19678-2 0  9993
2 30247  98.2773 256.3646 0193574 344.3955 168.8065 14.59279377973184
Epoch: 2025-12-15T05:11Z
TLE epoch observation values (Epoch: 2025-12-15T05:11:17.315Z)
Latitude
26.11553°
Longitude
-81.50731°
Altitude
833.176 km
Speed
7.368 km/s
True Right ascension
05h 21m 43s
True Declination
25° 58' 53"
Sunlit
Object was in full shadow at epoch
Visualization orbit readout
Latitude
Unknown
Longitude
Unknown
Altitude
Unknown
Speed
Unknown
Apparent Right ascension
Unknown
Apparent Declination
Unknown
Sunlit
N/A
Visualization observer readout
Local Sidereal Time
09:33:42
Azimuth
Unknown
Elevation
Unknown
Doppler factor
Unknown
Orbital elements
Apogee altitude
829.457 km
Perigee altitude
555.715 km
Semi-major axis
7,070.723 km
Eccentricity
0.01936
Inclination
98.2773°
RAAN
256.3646°
Arg. of periapsis
344.3955°
True anomaly
169.22711°
Mean anomaly
168.8065°
Eccentric anomaly
169.01779°
Mean motion
3.65046 °/min
Orbital period
98.62 mins
BSTAR
0.0019678
Loading maneuver chart data...
Computing Atmospheric mass density...

Documentation

Showing up to 5 results
|